Weather History for KTVL - September, 2012

Change the Weather History Date:

Friday, September 7, 2012

  Actual Average Record
Temperature  
Mean Temperature 60 °F 56 °F  
Max Temperature 77 °F 76 °F 90 °F (1988)
Min Temperature 43 °F 37 °F 27 °F (2002)
Degree Days  
Heating Degree Days 5 9  
Month to date heating degree days 55 58  
Since 1 July heating degree days 242 354  
Cooling Degree Days 0 0  
Month to date cooling degree days 0 0  
Year to date cooling degree days 30 30  
Growing Degree Days 10 (Base 50)    
Moisture  
Dew Point 43 °F    
Average Humidity 57    
Maximum Humidity 89    
Minimum Humidity 25    
Precipitation  
Precipitation 0.00 in - 1.27 in (1965)
Month to date precipitation 0.16  
Year to date precipitation 11.06  
Sea Level Pressure  
Sea Level Pressure 30.16 in    
Wind  
Wind Speed 3 mph (SSE)    
Max Wind Speed 13 mph    
Max Gust Speed 17 mph    
Visibility 10 miles    
Events      
T = Trace of Precipitation, MM = Missing Value Source: NWS Daily Summary

Daily Weather History Graph

Daily Weather History Graph

Search for Another Location

Airport or City:

Trip Planner

Search our weather history database for the weather conditions in past years. The results will help you decide how hot, cold, wet, or windy it might be!

Date:

Astronomy

Sep. 07, 2012 Rise Set
Actual Time 6:34 AM PDT 7:20 PM PDT
Civil Twilight 6:07 AM PDT 7:47 PM PDT
Nautical Twilight 5:35 AM PDT 8:18 PM PDT
Astronomical Twilight 5:02 AM PDT 8:51 PM PDT
Moon 11:23 PM PDT (9/7) 1:27 PM PDT (9/7)
Length of Visible Light 13h 39m
Length of Day
12h 45m
Waning Gibbous, 57% of the Moon is Illuminated
Sep 7
Waning Gibbous
Sep 8
Last Quarter
Sep 15
New
Sep 22
First Quarter
Sep 29
Full

Hourly Weather History & Observations

Time (PDT) Temp. Windchill Dew Point Humidity Pressure Visibility Wind Dir Wind Speed Gust Speed Precip Events Conditions
12:53 AM 48.9 °F - 42.1 °F 77% 30.13 in 10.0 mi SSE 4.6 mph - N/A   Scattered Clouds
1:53 AM 46.9 °F - 41.0 °F 80% 30.13 in 10.0 mi South 3.5 mph - N/A   Partly Cloudy
2:53 AM 46.0 °F 43.9 °F 39.9 °F 79% 30.13 in 10.0 mi South 4.6 mph - N/A   Mostly Cloudy
3:53 AM 45.0 °F 43.5 °F 39.9 °F 82% 30.14 in 10.0 mi SSW 3.5 mph - N/A   Mostly Cloudy
4:53 AM 46.0 °F - 41.0 °F 83% 30.14 in 10.0 mi Calm Calm - N/A   Partly Cloudy
5:53 AM 44.1 °F - 39.9 °F 85% 30.16 in 10.0 mi Calm Calm - N/A   Clear
6:53 AM 43.0 °F - 39.9 °F 89% 30.19 in 10.0 mi Calm Calm - N/A   Partly Cloudy
7:53 AM 45.0 °F 43.5 °F 41.0 °F 86% 30.23 in 10.0 mi South 3.5 mph - N/A   Clear
8:53 AM 55.9 °F - 46.0 °F 69% 30.21 in 10.0 mi Calm Calm - N/A   Mostly Cloudy
9:53 AM 66.0 °F - 48.0 °F 52% 30.19 in 10.0 mi East 3.5 mph - N/A   Clear
10:53 AM 70.0 °F - 46.0 °F 42% 30.18 in 10.0 mi Calm Calm - N/A   Clear
11:53 AM 72.0 °F - 48.0 °F 43% 30.17 in 10.0 mi Variable 6.9 mph - N/A   Partly Cloudy
12:53 PM 73.0 °F - 50.0 °F 44% 30.16 in 10.0 mi Variable 4.6 mph - N/A   Clear
1:53 PM 75.9 °F - 45.0 °F 33% 30.15 in 10.0 mi NNE 10.4 mph - N/A   Clear
2:53 PM 75.9 °F - 44.1 °F 32% 30.15 in 10.0 mi NNE 8.1 mph - N/A   Clear
3:53 PM 77.0 °F - 42.1 °F 29% 30.14 in 10.0 mi Variable 3.5 mph - N/A   Clear
4:53 PM 75.9 °F - 37.9 °F 25% 30.13 in 10.0 mi Variable 5.8 mph - N/A   Clear
5:53 PM 73.0 °F - 37.0 °F 27% 30.14 in 10.0 mi NNE 6.9 mph - N/A   Clear
6:53 PM 68.0 °F - 41.0 °F 37% 30.16 in 10.0 mi Calm Calm - N/A   Clear
7:53 PM 62.1 °F - 44.1 °F 52% 30.19 in 10.0 mi Calm Calm - N/A   Clear
8:53 PM 57.9 °F - 44.1 °F 60% 30.19 in 10.0 mi Calm Calm - N/A   Clear
9:53 PM 55.0 °F - 43.0 °F 64% 30.17 in 10.0 mi Calm Calm - N/A   Clear
10:53 PM 53.1 °F - 42.1 °F 66% 30.17 in 10.0 mi South 3.5 mph - N/A   Clear
11:53 PM 51.1 °F - 42.1 °F 71% 30.17 in 10.0 mi South 4.6 mph - N/A   Clear